| time (UTC) | temp F | wind direction | speed MPH | gust MPH | rain 1hr in | rain 24hr in | rain mn in | humidity % | barometer mb |
| 20260506185519 | 58 | 222 | 2.0 | 5.0 | 0.00 | 0.04 | 0.01 | 82 | 1021.8 |
| 20260506185020 | 58 | 237 | 2.0 | 5.0 | 0.00 | 0.04 | 0.01 | 82 | 1021.8 |
| 20260506184540 | 57 | 0 | 1.0 | 5.0 | 0.00 | 0.04 | 0.01 | 81 | 1021.8 |
| 20260506184017 | 57 | 245 | 2.0 | 7.0 | 0.00 | 0.04 | 0.01 | 84 | 1021.8 |
| 20260506183518 | 57 | 200 | 3.0 | 7.0 | 0.00 | 0.04 | 0.01 | 83 | 1021.8 |
| 20260506183037 | 57 | 244 | 2.0 | 7.0 | 0.00 | 0.04 | 0.01 | 82 | 1021.7 |
| 20260506182519 | 56 | 0 | 1.0 | 5.0 | 0.00 | 0.04 | 0.01 | 84 | 1021.8 |
| 20260506182018 | 56 | 196 | 1.0 | 5.0 | 0.00 | 0.04 | 0.01 | 82 | 1021.8 |
| 20260506181538 | 56 | 243 | 3.0 | 5.0 | 0.00 | 0.04 | 0.01 | 83 | 1021.7 |
| 20260506181018 | 55 | 219 | 1.0 | 4.0 | 0.00 | 0.04 | 0.01 | 85 | 1021.6 |
| 20260506180523 | 55 | 237 | 2.0 | 8.0 | 0.00 | 0.04 | 0.01 | 85 | 1021.6 |
| 20260506180049 | 55 | 0 | 1.0 | 8.0 | 0.00 | 0.04 | 0.01 | 85 | 1021.6 |
| 20260506175517 | 55 | 236 | 2.0 | 5.0 | 0.00 | 0.04 | 0.01 | 84 | 1021.6 |
| 20260506175017 | 54 | 55 | 1.0 | 4.0 | 0.00 | 0.04 | 0.01 | 86 | 1021.6 |
| 20260506174540 | 54 | 227 | 1.0 | 7.0 | 0.00 | 0.04 | 0.01 | 86 | 1021.6 |
| 20260506174017 | 54 | 244 | 3.0 | 7.0 | 0.00 | 0.04 | 0.01 | 86 | 1021.6 |
| 20260506173519 | 54 | 244 | 3.0 | 5.0 | 0.00 | 0.04 | 0.01 | 86 | 1021.5 |
| 20260506173041 | 54 | 252 | 1.0 | 4.0 | 0.00 | 0.04 | 0.01 | 88 | 1021.4 |
| 20260506172519 | 53 | 216 | 2.0 | 4.0 | 0.00 | 0.04 | 0.01 | 87 | 1021.3 |
| 20260506172021 | 53 | 234 | 2.0 | 4.0 | 0.00 | 0.04 | 0.01 | 88 | 1021.3 |
| 20260506171550 | 52 | 213 | 1.0 | 4.0 | 0.00 | 0.04 | 0.01 | 89 | 1021.3 |
| 20260506171017 | 52 | 207 | 1.0 | 4.0 | 0.00 | 0.04 | 0.01 | 90 | 1021.3 |
| 20260506170519 | 51 | 202 | 1.0 | 3.0 | 0.00 | 0.04 | 0.01 | 91 | 1021.2 |
| 20260506170037 | 51 | 218 | 1.0 | 3.0 | 0.00 | 0.04 | 0.01 | 91 | 1021.3 |
| 20260506165518 | 50 | 0 | 0.0 | 4.0 | 0.00 | 0.04 | 0.01 | 92 | 1021.3 |
| 20260506165018 | 50 | 0 | 0.0 | 4.0 | 0.00 | 0.04 | 0.01 | 93 | 1021.2 |
| 20260506164537 | 50 | 62 | 1.0 | 4.0 | 0.00 | 0.04 | 0.01 | 94 | 1021.3 |
| 20260506164018 | 49 | 0 | 0.0 | 4.0 | 0.00 | 0.04 | 0.01 | 94 | 1021.2 |
| 20260506163519 | 49 | 0 | 0.0 | 4.0 | 0.00 | 0.04 | 0.01 | 95 | 1021.2 |
| 20260506163044 | 49 | 156 | 0.0 | 3.0 | 0.00 | 0.04 | 0.01 | 96 | 1021.2 |
| 20260506162517 | 48 | 225 | 1.0 | 3.0 | 0.00 | 0.04 | 0.01 | 97 | 1021.2 |
| 20260506162017 | 48 | 0 | 0.0 | 3.0 | 0.00 | 0.04 | 0.01 | 97 | 1021.1 |
| 20260506161544 | 48 | 0 | 0.0 | 3.0 | 0.00 | 0.04 | 0.01 | 97 | 1021.2 |
| 20260506161021 | 47 | 0 | 1.0 | 3.0 | 0.00 | 0.04 | 0.01 | 97 | 1021.2 |
| 20260506160517 | 47 | 0 | 0.0 | 3.0 | 0.00 | 0.04 | 0.01 | 97 | 1021.1 |
| 20260506160041 | 47 | 0 | 0.0 | 3.0 | 0.00 | 0.04 | 0.01 | 97 | 1021.0 |
| 20260506155518 | 46 | 0 | 1.0 | 3.0 | 0.00 | 0.04 | 0.01 | 97 | 1021.1 |
| 20260506155017 | 46 | 0 | 0.0 | 2.0 | 0.00 | 0.04 | 0.01 | 97 | 1021.2 |
| 20260506154539 | 45 | 0 | 0.0 | 3.0 | 0.00 | 0.04 | 0.01 | 97 | 1021.2 |
| 20260506154017 | 45 | 116 | 0.0 | 3.0 | 0.00 | 0.04 | 0.01 | 97 | 1021.1 |
| 20260506153517 | 45 | 171 | 0.0 | 2.0 | 0.00 | 0.04 | 0.01 | 97 | 1021.1 |
| 20260506153041 | 45 | 0 | 0.0 | 3.0 | 0.00 | 0.04 | 0.01 | 97 | 1021.2 |
| 20260506152518 | 45 | 0 | 0.0 | 3.0 | 0.00 | 0.04 | 0.01 | 97 | 1021.1 |
| 20260506152018 | 44 | 0 | 0.0 | 0.0 | 0.00 | 0.04 | 0.01 | 97 | 1021.0 |
| 20260506151537 | 44 | 0 | 0.0 | 0.0 | 0.00 | 0.04 | 0.01 | 97 | 1021.1 |
| 20260506151017 | 44 | 0 | 0.0 | 0.0 | 0.00 | 0.04 | 0.01 | 97 | 1021.1 |
| 20260506150517 | 44 | 0 | 0.0 | 0.0 | 0.00 | 0.04 | 0.01 | 97 | 1021.0 |
| 20260506150042 | 44 | 0 | 0.0 | 0.0 | 0.00 | 0.04 | 0.01 | 97 | 1021.0 |
| 20260506145517 | 44 | 0 | 0.0 | 0.0 | 0.00 | 0.04 | 0.01 | 97 | 1021.1 |
| 20260506145018 | 43 | 0 | 0.0 | 0.0 | 0.00 | 0.04 | 0.01 | 97 | 1021.0 |
| 20260506144532 | 43 | 0 | 0.0 | 0.0 | 0.00 | 0.04 | 0.01 | 97 | 1021.0 |
| 20260506144018 | 43 | 0 | 0.0 | 0.0 | 0.00 | 0.04 | 0.01 | 97 | 1020.9 |
| 20260506143519 | 43 | 0 | 0.0 | 0.0 | 0.00 | 0.04 | 0.01 | 97 | 1020.8 |
| 20260506143033 | 43 | 0 | 0.0 | 0.0 | 0.00 | 0.04 | 0.01 | 97 | 1020.7 |
| 20260506142519 | 43 | 0 | 0.0 | 0.0 | 0.00 | 0.04 | 0.01 | 97 | 1020.7 |
| 20260506142018 | 43 | 0 | 0.0 | 0.0 | 0.00 | 0.04 | 0.01 | 97 | 1020.7 |
| 20260506141534 | 43 | 0 | 0.0 | 0.0 | 0.00 | 0.04 | 0.01 | 97 | 1020.7 |
| 20260506141019 | 43 | 0 | 0.0 | 0.0 | 0.00 | 0.04 | 0.01 | 97 | 1020.7 |
| 20260506140518 | 43 | 0 | 0.0 | 0.0 | 0.00 | 0.04 | 0.01 | 96 | 1020.7 |
| 20260506140037 | 43 | 0 | 0.0 | 0.0 | 0.00 | 0.04 | 0.01 | 97 | 1020.7 |
| 20260506135521 | 43 | 0 | 0.0 | 0.0 | 0.00 | 0.04 | 0.01 | 96 | 1020.7 |
| 20260506135024 | 43 | 0 | 0.0 | 0.0 | 0.00 | 0.04 | 0.01 | 97 | 1020.6 |
| 20260506134609 | 43 | 0 | 0.0 | 0.0 | 0.00 | 0.04 | 0.01 | 97 | 1020.6 |
| 20260506134017 | 43 | 0 | 0.0 | 0.0 | 0.00 | 0.04 | 0.01 | 97 | 1020.4 |
| 20260506133518 | 43 | 0 | 0.0 | 0.0 | 0.00 | 0.04 | 0.01 | 97 | 1020.4 |
| 20260506133034 | 43 | 0 | 0.0 | 0.0 | 0.00 | 0.04 | 0.01 | 97 | 1020.4 |
| 20260506132517 | 43 | 0 | 0.0 | 0.0 | 0.00 | 0.04 | 0.01 | 97 | 1020.4 |
| 20260506132017 | 43 | 0 | 0.0 | 0.0 | 0.00 | 0.04 | 0.01 | 97 | 1020.4 |
| 20260506131533 | 43 | 0 | 0.0 | 0.0 | 0.00 | 0.04 | 0.01 | 97 | 1020.4 |
| 20260506131018 | 43 | 0 | 0.0 | 0.0 | 0.00 | 0.04 | 0.01 | 97 | 1020.4 |
| 20260506130519 | 43 | 0 | 0.0 | 0.0 | 0.00 | 0.04 | 0.01 | 97 | 1020.2 |
| 20260506130040 | 43 | 0 | 0.0 | 0.0 | 0.00 | 0.04 | 0.01 | 97 | 1020.3 |
| 20260506125518 | 43 | 0 | 0.0 | 0.0 | 0.00 | 0.05 | 0.01 | 97 | 1020.1 |
| 20260506125018 | 43 | 0 | 0.0 | 0.0 | 0.00 | 0.05 | 0.01 | 97 | 1020.2 |
| 20260506124537 | 44 | 0 | 0.0 | 0.0 | 0.00 | 0.05 | 0.01 | 97 | 1020.1 |
| 20260506124018 | 44 | 0 | 0.0 | 0.0 | 0.00 | 0.05 | 0.01 | 97 | 1020.1 |
| 20260506123518 | 44 | 0 | 0.0 | 0.0 | 0.00 | 0.05 | 0.01 | 97 | 1020.1 |
| 20260506123042 | 44 | 0 | 0.0 | 0.0 | 0.00 | 0.05 | 0.01 | 97 | 1020.1 |
| 20260506122518 | 44 | 0 | 0.0 | 0.0 | 0.00 | 0.05 | 0.01 | 97 | 1020.0 |
| 20260506122017 | 44 | 0 | 0.0 | 0.0 | 0.00 | 0.05 | 0.01 | 97 | 1020.0 |
| 20260506121536 | 44 | 0 | 0.0 | 0.0 | 0.00 | 0.05 | 0.01 | 97 | 1020.0 |
| 20260506121017 | 44 | 0 | 0.0 | 0.0 | 0.00 | 0.05 | 0.01 | 97 | 1020.1 |
| 20260506120518 | 44 | 0 | 0.0 | 0.0 | 0.00 | 0.05 | 0.01 | 97 | 1020.0 |
| 20260506120035 | 44 | 0 | 0.0 | 0.0 | 0.00 | 0.05 | 0.01 | 97 | 1019.9 |
| 20260506115518 | 44 | 0 | 0.0 | 0.0 | 0.00 | 0.07 | 0.01 | 97 | 1019.9 |
| 20260506115016 | 43 | 0 | 0.0 | 0.0 | 0.00 | 0.07 | 0.01 | 97 | 1019.9 |
| 20260506114544 | 43 | 0 | 0.0 | 0.0 | 0.00 | 0.07 | 0.01 | 97 | 1019.9 |
| 20260506114018 | 43 | 0 | 0.0 | 0.0 | 0.00 | 0.07 | 0.01 | 97 | 1019.9 |
| 20260506113518 | 43 | 0 | 0.0 | 0.0 | 0.00 | 0.07 | 0.01 | 97 | 1019.9 |
| 20260506113039 | 43 | 0 | 0.0 | 0.0 | 0.00 | 0.07 | 0.01 | 97 | 1019.8 |
| 20260506112518 | 43 | 0 | 0.0 | 0.0 | 0.00 | 0.07 | 0.01 | 97 | 1019.7 |
| 20260506112017 | 43 | 0 | 0.0 | 0.0 | 0.00 | 0.07 | 0.01 | 97 | 1019.7 |
| 20260506111627 | 43 | 0 | 0.0 | 0.0 | 0.00 | 0.07 | 0.01 | 96 | 1019.6 |
| 20260506111018 | 43 | 0 | 0.0 | 0.0 | 0.00 | 0.07 | 0.01 | 96 | 1019.6 |
| 20260506110520 | 43 | 0 | 0.0 | 0.0 | 0.00 | 0.07 | 0.01 | 96 | 1019.6 |
| 20260506110041 | 43 | 0 | 0.0 | 0.0 | 0.01 | 0.07 | 0.01 | 96 | 1019.6 |
| 20260506105518 | 43 | 0 | 0.0 | 0.0 | 0.01 | 0.09 | 0.01 | 96 | 1019.4 |
| 20260506105017 | 43 | 0 | 0.0 | 0.0 | 0.01 | 0.09 | 0.01 | 96 | 1019.3 |
| 20260506104534 | 44 | 0 | 0.0 | 0.0 | 0.01 | 0.09 | 0.01 | 96 | 1019.4 |
| 20260506104017 | 44 | 0 | 0.0 | 0.0 | 0.01 | 0.09 | 0.01 | 97 | 1019.3 |
| 20260506103517 | 44 | 0 | 0.0 | 0.0 | 0.01 | 0.09 | 0.01 | 97 | 1019.3 |
| 20260506103041 | 44 | 0 | 0.0 | 0.0 | 0.01 | 0.09 | 0.01 | 97 | 1019.3 |
| 20260506102517 | 44 | 0 | 0.0 | 0.0 | 0.01 | 0.09 | 0.01 | 97 | 1019.2 |
| 20260506102018 | 44 | 0 | 0.0 | 0.0 | 0.01 | 0.09 | 0.01 | 97 | 1019.2 |
| 20260506101539 | 44 | 0 | 0.0 | 0.0 | 0.01 | 0.09 | 0.01 | 97 | 1019.2 |
| 20260506101018 | 44 | 0 | 0.0 | 0.0 | 0.01 | 0.09 | 0.01 | 97 | 1019.2 |
| 20260506100517 | 44 | 0 | 0.0 | 0.0 | 0.01 | 0.09 | 0.01 | 97 | 1019.2 |
| 20260506100036 | 44 | 0 | 0.0 | 0.0 | 0.00 | 0.08 | 0.00 | 97 | 1019.2 |
| 20260506095520 | 44 | 0 | 0.0 | 0.0 | 0.00 | 0.09 | 0.00 | 97 | 1019.1 |
| 20260506095018 | 44 | 0 | 0.0 | 0.0 | 0.00 | 0.09 | 0.00 | 97 | 1019.1 |
| 20260506094534 | 44 | 0 | 0.0 | 0.0 | 0.00 | 0.09 | 0.00 | 97 | 1019.1 |
| 20260506094017 | 44 | 0 | 0.0 | 0.0 | 0.00 | 0.09 | 0.00 | 97 | 1019.0 |
| 20260506093517 | 44 | 0 | 0.0 | 0.0 | 0.00 | 0.09 | 0.00 | 97 | 1019.0 |
| 20260506093051 | 44 | 0 | 0.0 | 0.0 | 0.00 | 0.09 | 0.00 | 97 | 1018.9 |
| 20260506092517 | 44 | 0 | 0.0 | 0.0 | 0.00 | 0.09 | 0.00 | 97 | 1018.9 |
| 20260506092017 | 44 | 0 | 0.0 | 0.0 | 0.00 | 0.09 | 0.00 | 97 | 1018.8 |
| 20260506091534 | 44 | 0 | 0.0 | 0.0 | 0.00 | 0.09 | 0.00 | 97 | 1018.9 |
| 20260506091019 | 44 | 0 | 0.0 | 0.0 | 0.00 | 0.09 | 0.00 | 97 | 1018.9 |
| 20260506090517 | 45 | 0 | 0.0 | 0.0 | 0.00 | 0.09 | 0.00 | 97 | 1018.9 |
| 20260506090040 | 44 | 0 | 0.0 | 0.0 | 0.00 | 0.09 | 0.00 | 97 | 1018.9 |
| 20260506085517 | 45 | 0 | 0.0 | 0.0 | 0.00 | 0.09 | 0.00 | 97 | 1019.1 |
| 20260506085017 | 44 | 0 | 0.0 | 0.0 | 0.00 | 0.09 | 0.00 | 97 | 1019.0 |
| 20260506084538 | 45 | 0 | 0.0 | 0.0 | 0.00 | 0.09 | 0.00 | 97 | 1019.1 |
| 20260506084020 | 44 | 0 | 0.0 | 0.0 | 0.00 | 0.09 | 0.00 | 97 | 1019.1 |
| 20260506083518 | 44 | 0 | 0.0 | 0.0 | 0.00 | 0.09 | 0.00 | 97 | 1019.2 |
| 20260506083037 | 44 | 0 | 0.0 | 0.0 | 0.00 | 0.09 | 0.00 | 97 | 1019.2 |
| 20260506082517 | 45 | 0 | 0.0 | 0.0 | 0.00 | 0.09 | 0.00 | 97 | 1019.2 |
| 20260506082018 | 45 | 0 | 0.0 | 0.0 | 0.00 | 0.09 | 0.00 | 97 | 1019.3 |
| 20260506081542 | 45 | 0 | 0.0 | 0.0 | 0.00 | 0.09 | 0.00 | 97 | 1019.3 |
| 20260506081018 | 45 | 0 | 0.0 | 0.0 | 0.00 | 0.09 | 0.00 | 97 | 1019.3 |
| 20260506080519 | 45 | 0 | 0.0 | 0.0 | 0.00 | 0.09 | 0.00 | 97 | 1019.2 |
| 20260506073521 | 45 | 0 | 0.0 | 0.0 | 0.00 | 0.10 | 0.00 | 97 | 1019.3 |
| 20260506073041 | 45 | 0 | 0.0 | 0.0 | 0.00 | 0.10 | 0.00 | 97 | 1019.3 |
| 20260506072520 | 45 | 0 | 0.0 | 0.0 | 0.00 | 0.10 | 0.00 | 97 | 1019.2 |
| 20260506072018 | 45 | 0 | 0.0 | 0.0 | 0.00 | 0.10 | 0.00 | 97 | 1019.0 |
| 20260506071535 | 45 | 0 | 0.0 | 0.0 | 0.00 | 0.10 | 0.00 | 97 | 1018.9 |
| 20260506071018 | 45 | 0 | 0.0 | 0.0 | 0.00 | 0.10 | 0.00 | 97 | 1018.9 |
| 20260506070518 | 45 | 0 | 0.0 | 0.0 | 0.00 | 0.10 | 0.00 | 97 | 1018.8 |
| 20260506062515 | 45 | 0 | 0.0 | 0.0 | 0.00 | 0.21 | 0.10 | 97 | 1018.6 |
| 20260506062017 | 45 | 0 | 0.0 | 0.0 | 0.00 | 0.21 | 0.10 | 97 | 1018.4 |
| 20260506061538 | 45 | 0 | 0.0 | 0.0 | 0.00 | 0.21 | 0.10 | 97 | 1018.4 |
| 20260506061018 | 45 | 0 | 0.0 | 0.0 | 0.00 | 0.21 | 0.10 | 97 | 1018.5 |
| 20260506060517 | 45 | 0 | 0.0 | 0.0 | 0.00 | 0.21 | 0.10 | 97 | 1018.4 |
| 20260506051020 | 45 | 0 | 0.0 | 0.0 | 0.00 | 0.24 | 0.10 | 97 | 1018.1 |
| 20260506050519 | 45 | 0 | 0.0 | 0.0 | 0.00 | 0.24 | 0.10 | 97 | 1017.9 |
| 20260506045019 | 45 | 0 | 0.0 | 0.0 | 0.00 | 0.26 | 0.10 | 97 | 1017.9 |
| 20260506044538 | 44 | 0 | 0.0 | 0.0 | 0.00 | 0.26 | 0.10 | 97 | 1018.0 |
| 20260506044020 | 44 | 0 | 0.0 | 0.0 | 0.00 | 0.26 | 0.10 | 97 | 1018.0 |
| 20260506043518 | 44 | 0 | 0.0 | 0.0 | 0.00 | 0.26 | 0.10 | 97 | 1017.8 |
| 20260506043040 | 44 | 0 | 0.0 | 0.0 | 0.00 | 0.26 | 0.10 | 97 | 1017.7 |
| 20260506042518 | 44 | 0 | 0.0 | 0.0 | 0.00 | 0.26 | 0.10 | 97 | 1017.7 |
| 20260506042019 | 44 | 0 | 0.0 | 0.0 | 0.00 | 0.26 | 0.10 | 97 | 1017.8 |
| 20260506041539 | 44 | 0 | 0.0 | 0.0 | 0.00 | 0.26 | 0.10 | 97 | 1017.7 |
| 20260506041017 | 44 | 0 | 0.0 | 0.0 | 0.00 | 0.26 | 0.10 | 97 | 1017.7 |
| 20260506040521 | 45 | 0 | 0.0 | 0.0 | 0.00 | 0.26 | 0.10 | 97 | 1017.6 |
| 20260506040035 | 45 | 0 | 0.0 | 0.0 | 0.00 | 0.26 | 0.10 | 97 | 1017.4 |
| 20260506035518 | 45 | 0 | 0.0 | 0.0 | 0.00 | 0.27 | 0.10 | 97 | 1017.3 |
| 20260506035018 | 45 | 0 | 0.0 | 0.0 | 0.00 | 0.27 | 0.10 | 97 | 1017.2 |
| 20260506034534 | 45 | 0 | 0.0 | 0.0 | 0.00 | 0.27 | 0.10 | 97 | 1017.2 |
| 20260506034017 | 45 | 0 | 0.0 | 0.0 | 0.00 | 0.27 | 0.10 | 97 | 1017.1 |
| 20260506033519 | 45 | 0 | 0.0 | 0.0 | 0.00 | 0.27 | 0.10 | 97 | 1017.1 |
| 20260506033034 | 45 | 0 | 0.0 | 0.0 | 0.00 | 0.27 | 0.10 | 97 | 1017.0 |
| 20260506032517 | 45 | 0 | 0.0 | 0.0 | 0.00 | 0.27 | 0.10 | 97 | 1016.9 |
| 20260506032017 | 45 | 0 | 0.0 | 0.0 | 0.00 | 0.27 | 0.10 | 97 | 1016.8 |
| 20260506031541 | 45 | 0 | 0.0 | 0.0 | 0.00 | 0.27 | 0.10 | 97 | 1016.7 |
| 20260506031021 | 45 | 0 | 0.0 | 0.0 | 0.00 | 0.27 | 0.10 | 97 | 1016.8 |
| 20260506030520 | 45 | 0 | 0.0 | 0.0 | 0.00 | 0.27 | 0.10 | 97 | 1016.8 |
| 20260506030039 | 45 | 0 | 0.0 | 0.0 | 0.00 | 0.27 | 0.10 | 97 | 1016.8 |
| 20260506025522 | 45 | 0 | 0.0 | 0.0 | 0.00 | 0.28 | 0.10 | 97 | 1016.8 |
| 20260506025018 | 45 | 0 | 0.0 | 0.0 | 0.00 | 0.28 | 0.10 | 97 | 1016.6 |
| 20260506024540 | 45 | 0 | 0.0 | 0.0 | 0.00 | 0.28 | 0.10 | 97 | 1016.6 |
| 20260506024018 | 45 | 0 | 0.0 | 0.0 | 0.00 | 0.28 | 0.10 | 97 | 1016.8 |
| 20260506023518 | 45 | 0 | 0.0 | 0.0 | 0.00 | 0.28 | 0.10 | 97 | 1016.8 |
| 20260506023035 | 45 | 0 | 0.0 | 0.0 | 0.00 | 0.28 | 0.10 | 97 | 1016.6 |
| 20260506022517 | 45 | 0 | 0.0 | 0.0 | 0.01 | 0.28 | 0.10 | 97 | 1016.6 |
| 20260506022017 | 45 | 0 | 0.0 | 0.0 | 0.01 | 0.28 | 0.10 | 97 | 1016.5 |
| 20260506021541 | 45 | 0 | 0.0 | 0.0 | 0.01 | 0.28 | 0.10 | 97 | 1016.6 |
| 20260506021017 | 45 | 0 | 0.0 | 0.0 | 0.01 | 0.28 | 0.10 | 97 | 1016.6 |
| 20260506020521 | 45 | 0 | 0.0 | 0.0 | 0.01 | 0.28 | 0.10 | 97 | 1016.6 |
| 20260506020048 | 45 | 0 | 0.0 | 0.0 | 0.01 | 0.28 | 0.10 | 97 | 1016.5 |
| 20260506015517 | 45 | 0 | 0.0 | 0.0 | 0.01 | 0.28 | 0.10 | 97 | 1016.4 |
| 20260506015021 | 45 | 0 | 0.0 | 0.0 | 0.01 | 0.28 | 0.10 | 97 | 1016.5 |
| 20260506014541 | 45 | 0 | 0.0 | 0.0 | 0.01 | 0.28 | 0.10 | 97 | 1016.5 |
| 20260506014018 | 45 | 0 | 0.0 | 0.0 | 0.01 | 0.28 | 0.10 | 97 | 1016.5 |
| 20260506013518 | 45 | 0 | 0.0 | 0.0 | 0.01 | 0.28 | 0.10 | 97 | 1016.3 |
| 20260506013040 | 45 | 0 | 0.0 | 0.0 | 0.01 | 0.28 | 0.10 | 97 | 1016.3 |
| 20260506012518 | 45 | 0 | 0.0 | 2.0 | 0.00 | 0.27 | 0.09 | 97 | 1016.3 |
| 20260506012018 | 45 | 0 | 0.0 | 2.0 | 0.00 | 0.27 | 0.09 | 97 | 1016.3 |
| 20260506011600 | 45 | 244 | 0.0 | 4.0 | 0.01 | 0.27 | 0.09 | 97 | 1016.2 |
| 20260506011018 | 45 | 244 | 1.0 | 4.0 | 0.01 | 0.27 | 0.09 | 97 | 1016.1 |
| 20260506010521 | 45 | 244 | 0.0 | 2.0 | 0.01 | 0.27 | 0.09 | 97 | 1016.1 |
| 20260506010048 | 45 | 244 | 0.0 | 3.0 | 0.01 | 0.27 | 0.09 | 97 | 1016.1 |
| 20260506005518 | 45 | 0 | 0.0 | 3.0 | 0.01 | 0.27 | 0.09 | 97 | 1016.1 |
| 20260506005017 | 45 | 0 | 0.0 | 2.0 | 0.01 | 0.27 | 0.09 | 97 | 1016.1 |
| 20260506004557 | 45 | 244 | 1.0 | 2.0 | 0.01 | 0.27 | 0.09 | 97 | 1016.1 |
| 20260506004017 | 45 | 244 | 1.0 | 3.0 | 0.01 | 0.27 | 0.09 | 97 | 1016.1 |
| 20260506003517 | 45 | 244 | 1.0 | 3.0 | 0.01 | 0.27 | 0.09 | 97 | 1016.0 |
| 20260506003042 | 45 | 240 | 1.0 | 3.0 | 0.01 | 0.27 | 0.09 | 97 | 1016.0 |
| 20260506002519 | 45 | 240 | 0.0 | 3.0 | 0.01 | 0.27 | 0.09 | 97 | 1015.9 |
| 20260506002017 | 45 | 240 | 1.0 | 3.0 | 0.01 | 0.27 | 0.09 | 97 | 1016.0 |
| 20260506001544 | 45 | 240 | 1.0 | 3.0 | 0.00 | 0.26 | 0.08 | 97 | 1016.0 |
| 20260506001020 | 45 | 229 | 1.0 | 2.0 | 0.00 | 0.26 | 0.08 | 97 | 1015.8 |
| 20260506000524 | 45 | 0 | 0.0 | 0.0 | 0.00 | 0.26 | 0.08 | 97 | 1015.8 |
| 20260506000109 | 45 | 0 | 0.0 | 2.0 | 0.00 | 0.26 | 0.08 | 97 | 1015.8 |
| 20260505235519 | 45 | 0 | 0.0 | 3.0 | 0.00 | 0.28 | 0.08 | 97 | 1015.8 |
| 20260505235018 | 45 | 244 | 1.0 | 3.0 | 0.00 | 0.28 | 0.08 | 97 | 1015.8 |
| 20260505234545 | 45 | 244 | 2.0 | 3.0 | 0.00 | 0.28 | 0.08 | 97 | 1015.8 |
| 20260505234018 | 45 | 233 | 1.0 | 3.0 | 0.00 | 0.28 | 0.08 | 97 | 1015.7 |
| 20260505233517 | 45 | 233 | 1.0 | 3.0 | 0.00 | 0.28 | 0.08 | 97 | 1015.7 |
| 20260505233035 | 45 | 233 | 1.0 | 3.0 | 0.00 | 0.28 | 0.08 | 97 | 1015.7 |
| 20260505232522 | 45 | 233 | 0.0 | 2.0 | 0.00 | 0.28 | 0.08 | 97 | 1015.5 |
| 20260505232019 | 45 | 0 | 0.0 | 3.0 | 0.00 | 0.28 | 0.08 | 96 | 1015.6 |
| 20260505231534 | 45 | 233 | 1.0 | 4.0 | 0.00 | 0.28 | 0.08 | 96 | 1015.7 |
| 20260505231017 | 45 | 233 | 2.0 | 4.0 | 0.00 | 0.28 | 0.08 | 97 | 1015.5 |
| 20260505230518 | 45 | 247 | 1.0 | 4.0 | 0.00 | 0.28 | 0.08 | 97 | 1015.5 |
| 20260505230051 | 45 | 240 | 1.0 | 4.0 | 0.00 | 0.28 | 0.08 | 96 | 1015.5 |
| 20260505225523 | 45 | 240 | 2.0 | 4.0 | 0.00 | 0.41 | 0.08 | 96 | 1015.5 |
| 20260505225018 | 45 | 242 | 0.0 | 2.0 | 0.00 | 0.41 | 0.08 | 96 | 1015.5 |
| 20260505224540 | 45 | 0 | 0.0 | 0.0 | 0.01 | 0.41 | 0.08 | 97 | 1015.5 |
| 20260505224017 | 45 | 0 | 0.0 | 2.0 | 0.01 | 0.41 | 0.08 | 97 | 1015.5 |
| 20260505223518 | 45 | 0 | 0.0 | 2.0 | 0.01 | 0.41 | 0.08 | 96 | 1015.5 |
| 20260505223041 | 45 | 238 | 0.0 | 3.0 | 0.01 | 0.41 | 0.08 | 97 | 1015.6 |
| 20260505222522 | 44 | 238 | 1.0 | 4.0 | 0.01 | 0.41 | 0.08 | 97 | 1015.6 |
| 20260505222018 | 44 | 238 | 1.0 | 4.0 | 0.01 | 0.41 | 0.08 | 96 | 1015.7 |
| 20260505221535 | 44 | 238 | 3.0 | 4.0 | 0.01 | 0.41 | 0.08 | 96 | 1015.7 |
| 20260505221017 | 44 | 236 | 1.0 | 4.0 | 0.01 | 0.41 | 0.08 | 96 | 1015.7 |
| 20260505220517 | 44 | 236 | 1.0 | 4.0 | 0.01 | 0.41 | 0.08 | 96 | 1015.7 |
| 20260505220039 | 45 | 254 | 1.0 | 3.0 | 0.01 | 0.41 | 0.08 | 96 | 1015.7 |
| 20260505215518 | 44 | 265 | 0.0 | 2.0 | 0.01 | 0.60 | 0.08 | 96 | 1015.7 |
| 20260505215015 | 45 | 265 | 0.0 | 2.0 | 0.01 | 0.60 | 0.08 | 96 | 1015.8 |
| 20260505214534 | 45 | 250 | 1.0 | 2.0 | 0.00 | 0.58 | 0.07 | 96 | 1015.7 |
| 20260505214019 | 44 | 0 | 0.0 | 3.0 | 0.00 | 0.58 | 0.07 | 96 | 1015.8 |
| 20260505213515 | 44 | 219 | 1.0 | 3.0 | 0.00 | 0.58 | 0.07 | 96 | 1015.8 |
| 20260505213035 | 44 | 0 | 0.0 | 3.0 | 0.00 | 0.58 | 0.07 | 96 | 1015.8 |
| 20260505212518 | 44 | 238 | 1.0 | 3.0 | 0.00 | 0.58 | 0.07 | 96 | 1015.8 |
| 20260505212018 | 44 | 238 | 0.0 | 3.0 | 0.00 | 0.58 | 0.07 | 96 | 1015.7 |
| 20260505211537 | 44 | 238 | 1.0 | 3.0 | 0.00 | 0.58 | 0.07 | 96 | 1015.7 |
| 20260505211018 | 44 | 225 | 0.0 | 3.0 | 0.00 | 0.58 | 0.07 | 96 | 1015.8 |
| 20260505210517 | 44 | 0 | 0.0 | 4.0 | 0.00 | 0.58 | 0.07 | 96 | 1015.8 |
| 20260505210035 | 44 | 242 | 2.0 | 4.0 | 0.00 | 0.58 | 0.07 | 96 | 1015.8 |
| 20260505205518 | 44 | 244 | 1.0 | 3.0 | 0.00 | 0.67 | 0.07 | 96 | 1015.7 |
| 20260505205021 | 44 | 246 | 1.0 | 3.0 | 0.00 | 0.67 | 0.07 | 96 | 1015.7 |
| 20260505204545 | 44 | 0 | 0.0 | 2.0 | 0.00 | 0.67 | 0.07 | 96 | 1015.7 |
| 20260505204019 | 44 | 0 | 0.0 | 3.0 | 0.00 | 0.67 | 0.07 | 96 | 1015.6 |
| 20260505203519 | 44 | 250 | 1.0 | 3.0 | 0.00 | 0.67 | 0.07 | 96 | 1015.5 |
| 20260505203037 | 44 | 242 | 1.0 | 5.0 | 0.00 | 0.67 | 0.07 | 96 | 1015.6 |
| 20260505202518 | 44 | 249 | 1.0 | 5.0 | 0.00 | 0.67 | 0.07 | 96 | 1015.6 |
| 20260505202018 | 44 | 238 | 2.0 | 4.0 | 0.00 | 0.67 | 0.07 | 96 | 1015.6 |
| 20260505201534 | 44 | 241 | 1.0 | 3.0 | 0.00 | 0.67 | 0.07 | 96 | 1015.6 |
| 20260505201016 | 44 | 245 | 1.0 | 3.0 | 0.00 | 0.67 | 0.07 | 96 | 1015.5 |
| 20260505200515 | 44 | 245 | 2.0 | 3.0 | 0.00 | 0.67 | 0.07 | 96 | 1015.5 |
| 20260505200039 | 44 | 206 | 0.0 | 4.0 | 0.00 | 0.67 | 0.07 | 96 | 1015.6 |
| 20260505195515 | 44 | 0 | 1.0 | 5.0 | 0.00 | 0.67 | 0.07 | 96 | 1015.5 |
| 20260505195018 | 44 | 248 | 2.0 | 5.0 | 0.00 | 0.67 | 0.07 | 96 | 1015.5 |
| 20260505194543 | 44 | 242 | 2.0 | 5.0 | 0.00 | 0.67 | 0.07 | 96 | 1015.4 |
| 20260505194019 | 44 | 245 | 2.0 | 4.0 | 0.00 | 0.67 | 0.07 | 96 | 1015.6 |
| 20260505193517 | 44 | 250 | 1.0 | 3.0 | 0.00 | 0.67 | 0.07 | 95 | 1015.5 |
| 20260505193037 | 44 | 254 | 1.0 | 3.0 | 0.00 | 0.67 | 0.07 | 96 | 1015.4 |
| 20260505192514 | 44 | 0 | 0.0 | 3.0 | 0.00 | 0.67 | 0.07 | 95 | 1015.4 |
| 20260505192017 | 44 | 231 | 1.0 | 3.0 | 0.00 | 0.67 | 0.07 | 95 | 1015.4 |
| 20260505191547 | 44 | 221 | 1.0 | 4.0 | 0.00 | 0.67 | 0.07 | 95 | 1015.4 |
| 20260505191021 | 44 | 221 | 1.0 | 4.0 | 0.00 | 0.67 | 0.07 | 95 | 1015.3 |
| 20260505190520 | 44 | 227 | 1.0 | 4.0 | 0.00 | 0.67 | 0.07 | 95 | 1015.2 |
| 20260505190038 | 44 | 237 | 2.0 | 4.0 | 0.00 | 0.67 | 0.07 | 95 | 1015.1 |